Regional Weather Roundup
Issued by NWS

Home | Current Version | Previous Version | Text Only | Print | Product List | Glossary On
Versions: 1 2 3 4 5 6 7 8 9 10 11 12 13 14 15 16 17 18 19 20 21 22 23 24 25 26 27 28 29 30 31 32 33 34 35 36 37 38 39 40 41 42 43 44 45 46 47 48 49 50
000
ASUS44 KFWD 110915
RWRTX
NORTH TEXAS HOURLY WEATHER ROUNDUP
NATIONAL WEATHER SERVICE FORT WORTH TX
300 AM CST THU FEB 11 2016

NOTE: "FAIR" INDICATES FEW OR NO CLOUDS BELOW 12,000 FEET WITH NO
SIGNIFICANT WEATHER AND/OR OBSTRUCTIONS TO VISIBILITY.

TXZ118-119-111000-
DALLAS/FORT WORTH METROPLEX

CITY           SKY/WX    TMP DP  RH WIND       PRES   REMARKS
DFW AIRPORT    CLEAR     53  31  42 SW12      30.01S
DALLAS LOVE    CLEAR     53  35  50 SW9       30.03S
FTW MEACHAM    CLEAR     60  28  29 SW10      30.02S
DAL-EXECUTIVE  CLEAR     60  30  32 SW12G20   30.02S
FTW-ALLIANCE   CLEAR     57  28  33 SW10      30.01S
FTW-NAS-JRB    CLEAR     59  27  29 SW8       30.03S
FTW-SPINKS     CLEAR     51  31  46 SW6       30.06R
ARLINGTON      CLEAR     46  34  62 SE3       30.04S
GRAND PRAIRIE  CLEAR     49  34  55 S6        30.05S
ADDISON        CLEAR     55  36  48 SW5       30.03F
MESQUITE       CLEAR     48  35  59 S10       30.04S
LANCASTER      CLEAR     50  32  48 SW3       30.05S
$$

TXZ091>094-102>105-117-120-121-131>134-111000-
NORTH CENTRAL TEXAS

CITY           SKY/WX    TMP DP  RH WIND       PRES   REMARKS
SHRMAN/DENISON CLEAR     51  34  51 SW10      29.99S
GAINESVILLE    CLEAR     51  30  44 S3        30.00S
BOWIE          CLEAR     57  25  28 SW6       30.00S
BRIDGEPORT     CLEAR     55  31  40 SW10      30.03S
DECATUR        CLEAR     56  26  30 SW8       30.01F
DENTON         CLEAR     52  30  43 SW8       30.00F
MCKINNEY       CLEAR     49  34  56 S7        30.01S
GREENVILLE     CLEAR     52  34  50 S8        30.02S
ROCKWALL       CLEAR     53  35  51 SW15      30.01F
TERRELL        CLEAR     48  35  60 S6        30.05S
WAXAHACHIE     CLEAR     55  34  44 SW6       30.06S
CLEBURNE       CLEAR     52  30  43 CALM      30.07S
GRANBURY       CLEAR     62  29  28 SW7       30.05S
$$

TXZ083>090-098>101-113>116-127>130-139>142-154-155-111000-
WESTERN NORTH TEXAS

CITY           SKY/WX    TMP DP  RH WIND       PRES   REMARKS
WICHITA FALLS  CLEAR     50  27  40 W6        30.02R
WF-KICKAPOO    CLEAR     56  26  30 W7        30.03R
VERNON         CLEAR     48  21  34 SW9       30.03S
ABILENE        CLEAR     57  25  29 SW15      30.07F
ABILENE-DYESS  CLEAR     59  26  28 S17G24    30.05F
BRECKENRIDGE   CLEAR     58  25  27 SW10      30.05S
GRAHAM         CLEAR     54  28  37 S5        30.02S
MINERAL WELLS  CLEAR     58  26  29 W10       30.02F
STEPHENVILLE   CLEAR     56  27  32 SW5       30.10S
COMANCHE       CLEAR     58  29  33 SW18G24   30.08F
BROWNWOOD      PTCLDY    45  28  53 SE5       30.11F
COLEMAN        CLEAR     55  26  32 SW10      30.10F
$$

TXZ143>147-156>162-174-175-111000-
CENTRAL TEXAS

CITY           SKY/WX    TMP DP  RH WIND       PRES   REMARKS
WACO           CLEAR     47  32  56 S7        30.09S
WACO-MCGREGOR  CLEAR     48  33  56 S7        30.08F
HILLSBORO      CLEAR     47  32  56 S7        30.08S
CORSICANA      PTCLDY    55  35  47 SW15      30.08F
MEXIA          PTCLDY    53  36  52 S18       30.09S
HEARNE         CLEAR     50  38  62 SE3       30.14F
CAMERON        CLEAR     55  37  52 SW15      30.11F
TEMPLE         CLEAR     47  33  58 S10       30.10F
KILLEEN        CLEAR     58  28  32 W7        30.09F
KILLEEN-SKYLRK CLEAR     56  30  37 S7        30.10F
FORT HOOD      CLEAR     58  28  32 SW9       30.07F
GATESVILLE     CLEAR     54  32  43 CALM      30.11F
HAMILTON       CLEAR     58  29  34 SW13G21   30.09S
LAMPASAS       CLEAR     53  31  44 W6        30.09F
$$

TXZ095>097-106>112-122>126-135>138-148>153-164>167-111000-
EAST TEXAS

CITY           SKY/WX    TMP DP  RH WIND       PRES   REMARKS
PARIS          CLEAR     48  32  53 SW9       29.99R
SULPHUR SPRNGS CLEAR     58  35  42 SW17G24   30.03R
MOUNT PLEASANT CLEAR     59  33  37 SW12      30.03S
GILMER           N/A    N/A N/A N/A MISG        N/A
MINEOLA        CLEAR     61  34  36 S12       30.05R
TYLER          CLEAR     57  38  48 SW14      30.06S
LONGVIEW       CLEAR     50  39  66 SW9       30.05F
MARSHALL       PTCLDY    50  39  66 S7        30.07F
ATHENS         PTCLDY    50  37  62 CALM      30.07S
PALESTINE      PTCLDY    51  42  72 S5        30.11S
JACKSONVILLE   CLEAR     54  40  60 SW9G16    30.10S
HENDERSON      CLEAR     48  39  71 CALM      30.09S
CENTER         FAIR      52  43  70 S5        30.09S
NACOGDOCHES    PTCLDY    46  39  76 SW5       30.11S
LUFKIN         PTCLDY    50  43  77 SW7       30.12F
$$

SUPPLEMENTAL OBSERVATIONS (CENTRAL)

CITY           SKY/WX    TMP DP  RH WIND       PRES   REMARKS
LAKE TEXOMA      N/A     55  34  44 W20         N/A
CADDO GRASSLND   N/A     57  34  41 SW9         N/A
PAT MAYSE LAKE   N/A     54  36  50 S13         N/A
GREENVILLE       N/A     54  34  47 SW10        N/A
CEDAR HILL       N/A     54  32  43 S7          N/A
ATHENS           N/A     52  39  62 SW6         N/A
LAKE LIMESTONE   N/A     50  39  66 S7          N/A
MCGREGOR         N/A     45  32  61 S7          N/A
TEMPLE           N/A     48  32  53 SW1         N/A
$$

SUPPLEMENTAL OBSERVATIONS (WEST)

CITY           SKY/WX    TMP DP  RH WIND       PRES   REMARKS
MILLERS CREEK    N/A     43  32  65 SW8         N/A  WCI  38
POSSUM KINGDOM   N/A     63  25  23 SW14        N/A
LBJ GRASSLAND    N/A     55  28  35 S5          N/A
GRANBURY         N/A     63  28  27 W9G18       N/A
COMANCHE         N/A     59  28  31 SW18G25     N/A
IVIE RESERVOIR   N/A     52  27  37 NW6         N/A
COLORADO BEND    N/A     57  25  28 W12         N/A
$$

SUPPLEMENTAL OBSERVATIONS (EAST)

CITY           SKY/WX    TMP DP  RH WIND       PRES   REMARKS
CLARKSVILLE      N/A     52  34  50 SW5         N/A
TEXARKANA        N/A     52  34  50 S1          N/A
LINDEN           N/A     55  34  44 SW6G14      N/A
CADDO LAKE       N/A     52  37  58 SW3         N/A
GILMER           N/A     55  36  47 SW9         N/A
HENDERSON        N/A     48  37  66 SW6         N/A
LUFKIN           N/A     48  43  81 MISG        N/A
N SABINE NF      N/A     50  41  71 MISG        N/A
S SABINE NF      N/A     48  43  81 S5          N/A
$$

SUPPLEMENTAL OBSERVATIONS ARE A COLLECTION OF AUTOMATED INSTRUMENTS
THAT ARE MAINTAINED BY A VARIETY OF FEDERAL AND STATE AGENCIES.
CERTAIN ELEMENTS...SUCH AS HUMIDITY VALUES AND SUSTAINED WIND
SPEEDS...MAY BE APPROXIMATED.




USA.gov is the U.S. government's official web portal to all federal, state and local government web resources and services.